QPF
0.06 0.06 0.04 0.03 0.03 0.04 0.04 0.05 0.05 0.03 0.01 0.01 0.01 0.01 0.02 0.01 0.02 0.02 0.02 0.02 0.02 0.02 0.02 0.01 0.02 0.02 0.03 0.04 0.05 0.06 0.05 0.04 0.02 0.01 0.02 0.03 0.03 0.04
0.06 0.07 0.05 0.03 0.03 0.04 0.04 0.04 0.04 0.03 0.01 0.01 0.01 0.02 0.03 0.04 0.04 0.01 0.02 0.03 0.03 0.03 0.03 0.03 0.03 0.03 0.03 0.03 0.04 0.05 0.06 0.04 0.02 0.02 0.03 0.03 0.04 0.04
0.07 0.07 0.07 0.05 0.03 0.03 0.04 0.04 0.03 0.02 0.01 0.01 0.01 0.01 0.02 0.04 0.06 0.03 0.01 0.02 0.03 0.04 0.04 0.04 0.03 0.02 0.02 0.02 0.02 0.02 0.05 0.05 0.02 0.01 0.02 0.04 0.05 0.05
0.07 0.06 0.06 0.04 0.02 0.02 0.03 0.02 0.02 0.02 0.02 0.01 0.02 0.01 0.01 0.03 0.05 0.04 0.02 0.02 0.02 0.04 0.05 0.04 0.03 0.02 0.01 0.01 0.01 0.01 0.02 0.03 0.02 0.01 0.02 0.03 0.04 0.05
0.07 0.05 0.04 0.04 0.02 0.02 0.03 0.02 0.02 0.03 0.02 0.02 0.02 0.02 0.02 0.03 0.03 0.03 0.02 0.01 0.02 0.03 0.03 0.04 0.03 0.01 0.01 0.00 0.00 0.01 0.01 0.01 0.02 0.01 0.02 0.03 0.04 0.04
0.07 0.05 0.04 0.04 0.03 0.03 0.03 0.03 0.03 0.04 0.04 0.03 0.02 0.02 0.02 0.03 0.03 0.03 0.02 0.01 0.02 0.02 0.02 0.02 0.02 0.01 0.01 0.01 0.00 0.00 0.01 0.01 0.01 0.01 0.01 0.02 0.02 0.02
0.06 0.06 0.06 0.05 0.05 0.05 0.05 0.05 0.04 0.03 0.03 0.03 0.02 0.01 0.02 0.02 0.03 0.03 0.03 0.02 0.02 0.02 0.02 0.01 0.01 0.01 0.00 0.01 0.01 0.01 0.01 0.01 0.01 0.00 0.01 0.00 0.01 0.01
0.09 0.08 0.08 0.07 0.06 0.05 0.05 0.05 0.04 0.03 0.02 0.02 0.01 0.01 0.03 0.03 0.02 0.03 0.03 0.03 0.02 0.03 0.02 0.01 0.01 0.01 0.00 0.00 0.00 0.01 0.01 0.01 0.00 0.00 0.00 0.00 0.00 0.00
0.07 0.06 0.05 0.03 0.03 0.03 0.03 0.03 0.03 0.03 0.02 0.02 0.02 0.01 0.02 0.04 0.03 0.02 0.03 0.02 0.02 0.03 0.02 0.02 0.01 0.01 0.01 0.01 0.01 0.01 0.01 0.01 0.01 0.00 0.00 0.00 0.00 0.00
0.03 0.03 0.03 0.02 0.03 0.03 0.03 0.02 0.01 0.01 0.01 0.02 0.02 0.02 0.02 0.03 0.04 0.03 0.03 0.03 0.02 0.02 0.02 0.02 0.01 0.01 0.01 0.01 0.01 0.02 0.01 0.01 0.01 0.01 0.00 0.00 0.00 0.00
0.01 0.02 0.02 0.02 0.02 0.02 0.02 0.02 0.02 0.01 0.02 0.02 0.02 0.02 0.02 0.03 0.04 0.05 0.04 0.04 0.03 0.02 0.01 0.01 0.01 0.01 0.01 0.01 0.01 0.02 0.02 0.02 0.02 0.01 0.01 0.01 0.00 0.00
0.02 0.02 0.02 0.02 0.03 0.02 0.02 0.03 0.03 0.03 0.03 0.03 0.02 0.01 0.02 0.03 0.04 0.04 0.05 0.04 0.04 0.03 0.01 0.02 0.02 0.02 0.02 0.02 0.02 0.02 0.02 0.02 0.02 0.01 0.01 0.01 0.01 0.00
0.02 0.02 0.02 0.03 0.03 0.04 0.04 0.04 0.04 0.06 0.05 0.05 0.04 0.03 0.02 0.02 0.03 0.04 0.05 0.04 0.04 0.03 0.02 0.01 0.02 0.03 0.02 0.02 0.02 0.02 0.02 0.01 0.01 0.01 0.01 0.01 0.01 0.01
0.02 0.02 0.02 0.02 0.03 0.04 0.04 0.05 0.05 0.05 0.05 0.05 0.05 0.04 0.04 0.03 0.03 0.03 0.04 0.04 0.03 0.04 0.05 0.03 0.02 0.02 0.03 0.02 0.02 0.02 0.02 0.02 0.02 0.02 0.02 0.02 0.02 0.02
0.01 0.01 0.01 0.01 0.02 0.02 0.03 0.04 0.04 0.04 0.05 0.06 0.06 0.05 0.06 0.05 0.05 0.05 0.04 0.04 0.04 0.04 0.05 0.04 0.02 0.01 0.01 0.01 0.01 0.02 0.02 0.02 0.02 0.02 0.03 0.02 0.01 0.01
0.02 0.02 0.01 0.01 0.01 0.01 0.02 0.03 0.03 0.03 0.04 0.06 0.08 0.07 0.07 0.06 0.06 0.05 0.05 0.04 0.03 0.02 0.03 0.03 0.03 0.02 0.02 0.02 0.01 0.01 0.01 0.01 0.01 0.01 0.02 0.02 0.02 0.01
0.01 0.02 0.02 0.02 0.02 0.02 0.02 0.02 0.02 0.03 0.04 0.05 0.06 0.07 0.05 0.04 0.04 0.03 0.04 0.04 0.04 0.03 0.03 0.03 0.03 0.03 0.03 0.03 0.02 0.01 0.01 0.01 0.01 0.01 0.01 0.02 0.02 0.02
0.01 0.01 0.02 0.02 0.02 0.02 0.02 0.02 0.02 0.02 0.03 0.05 0.06 0.07 0.06 0.05 0.04 0.04 0.04 0.05 0.05 0.04 0.04 0.04 0.04 0.03 0.03 0.02 0.02 0.01 0.01 0.01 0.01 0.01 0.01 0.01 0.01 0.02
0.01 0.01 0.01 0.01 0.01 0.01 0.02 0.02 0.02 0.02 0.02 0.03 0.04 0.04 0.04 0.04 0.03 0.04 0.04 0.06 0.07 0.06 0.05 0.04 0.05 0.05 0.05 0.04 0.04 0.03 0.03 0.02 0.02 0.02 0.02 0.01 0.02 0.02
0.01 0.01 0.01 0.01 0.01 0.01 0.01 0.01 0.01 0.01 0.01 0.02 0.02 0.02 0.03 0.03 0.03 0.03 0.04 0.05 0.07 0.08 0.08 0.07 0.05 0.04 0.04 0.04 0.04 0.03 0.03 0.02 0.02 0.02 0.02 0.02 0.02 0.03
0.01 0.01 0.01 0.01 0.01 0.01 0.01 0.01 0.01 0.01 0.01 0.01 0.01 0.02 0.02 0.04 0.04 0.04 0.04 0.04 0.05 0.06 0.07 0.07 0.07 0.06 0.05 0.04 0.04 0.04 0.03 0.02 0.01 0.01 0.02 0.02 0.03 0.03
0.00 0.01 0.01 0.00 0.00 0.01 0.01 0.01 0.01 0.01 0.02 0.02 0.01 0.02 0.02 0.04 0.05 0.05 0.04 0.04 0.05 0.06 0.07 0.07 0.06 0.05 0.06 0.06 0.04 0.03 0.02 0.01 0.01 0.02 0.02 0.02 0.02 0.03
0.01 0.00 0.00 0.00 0.00 0.00 0.01 0.02 0.02 0.02 0.02 0.02 0.02 0.02 0.02 0.03 0.04 0.04 0.05 0.05 0.05 0.06 0.07 0.07 0.05 0.04 0.03 0.03 0.03 0.02 0.02 0.01 0.02 0.02 0.02 0.02 0.02 0.02
MSLP
1018.89 1018.92 1019.00 1019.12 1019.27 1019.42 1019.54 1019.61 1019.61 1019.51 1019.34 1019.07 1018.75 1018.38 1018.01 1017.67 1017.39 1017.20 1017.12 1017.15 1017.29 1017.52 1017.81 1018.13 1018.43 1018.69 1018.88 1018.99 1019.03 1019.00 1018.93 1018.84 1018.74 1018.66 1018.60 1018.55 1018.50 1018.44
1018.96 1018.98 1019.06 1019.20 1019.37 1019.55 1019.72 1019.84 1019.90 1019.87 1019.75 1019.54 1019.25 1018.91 1018.55 1018.20 1017.90 1017.67 1017.53 1017.51 1017.59 1017.77 1018.01 1018.29 1018.57 1018.81 1019.00 1019.11 1019.15 1019.12 1019.04 1018.93 1018.81 1018.70 1018.61 1018.53 1018.46 1018.38
1019.05 1019.07 1019.16 1019.31 1019.49 1019.70 1019.90 1020.07 1020.18 1020.21 1020.16 1020.01 1019.79 1019.50 1019.18 1018.85 1018.55 1018.30 1018.13 1018.06 1018.08 1018.20 1018.38 1018.61 1018.84 1019.05 1019.22 1019.32 1019.34 1019.30 1019.21 1019.08 1018.94 1018.79 1018.67 1018.56 1018.46 1018.36
1019.18 1019.21 1019.30 1019.45 1019.65 1019.87 1020.09 1020.28 1020.43 1020.52 1020.52 1020.45 1020.30 1020.08 1019.82 1019.54 1019.26 1019.02 1018.84 1018.73 1018.70 1018.75 1018.87 1019.03 1019.21 1019.37 1019.51 1019.58 1019.59 1019.54 1019.42 1019.28 1019.11 1018.93 1018.77 1018.63 1018.50 1018.37
1019.34 1019.39 1019.48 1019.63 1019.82 1020.03 1020.25 1020.46 1020.62 1020.74 1020.80 1020.80 1020.72 1020.58 1020.40 1020.18 1019.96 1019.74 1019.56 1019.42 1019.36 1019.35 1019.40 1019.50 1019.62 1019.73 1019.82 1019.87 1019.86 1019.79 1019.67 1019.50 1019.31 1019.10 1018.91 1018.72 1018.55 1018.39
1019.52 1019.57 1019.67 1019.81 1019.98 1020.17 1020.37 1020.56 1020.73 1020.87 1020.96 1021.01 1021.00 1020.95 1020.84 1020.70 1020.54 1020.37 1020.21 1020.07 1019.97 1019.92 1019.92 1019.95 1020.01 1020.08 1020.13 1020.15 1020.12 1020.04 1019.91 1019.73 1019.51 1019.28 1019.04 1018.82 1018.60 1018.39
1019.68 1019.74 1019.83 1019.96 1020.10 1020.26 1020.43 1020.59 1020.74 1020.88 1020.99 1021.07 1021.13 1021.14 1021.12 1021.06 1020.97 1020.85 1020.73 1020.60 1020.49 1020.41 1020.37 1020.35 1020.36 1020.39 1020.41 1020.40 1020.36 1020.27 1020.13 1019.94 1019.71 1019.45 1019.17 1018.90 1018.63 1018.36
1019.76 1019.83 1019.93 1020.03 1020.15 1020.28 1020.40 1020.53 1020.65 1020.77 1020.89 1021.00 1021.09 1021.17 1021.22 1021.24 1021.22 1021.17 1021.08 1020.98 1020.88 1020.79 1020.72 1020.67 1020.64 1020.64 1020.63 1020.62 1020.57 1020.48 1020.33 1020.13 1019.88 1019.60 1019.28 1018.96 1018.63 1018.31
1019.74 1019.82 1019.92 1020.02 1020.12 1020.21 1020.31 1020.40 1020.49 1020.59 1020.70 1020.82 1020.95 1021.08 1021.19 1021.27 1021.32 1021.33 1021.29 1021.23 1021.14 1021.05 1020.96 1020.90 1020.86 1020.83 1020.82 1020.80 1020.75 1020.66 1020.51 1020.31 1020.05 1019.73 1019.38 1019.00 1018.62 1018.24
1019.58 1019.68 1019.79 1019.90 1020.00 1020.08 1020.15 1020.22 1020.29 1020.37 1020.48 1020.61 1020.76 1020.92 1021.08 1021.22 1021.32 1021.38 1021.39 1021.35 1021.29 1021.21 1021.13 1021.06 1021.02 1020.99 1020.98 1020.96 1020.91 1020.83 1020.68 1020.47 1020.20 1019.86 1019.47 1019.05 1018.62 1018.18
1019.31 1019.43 1019.57 1019.69 1019.80 1019.89 1019.97 1020.03 1020.09 1020.17 1020.27 1020.41 1020.57 1020.76 1020.95 1021.12 1021.27 1021.37 1021.41 1021.41 1021.37 1021.31 1021.24 1021.19 1021.15 1021.13 1021.12 1021.11 1021.07 1020.99 1020.85 1020.64 1020.35 1019.99 1019.58 1019.13 1018.65 1018.17
1018.94 1019.10 1019.27 1019.43 1019.57 1019.69 1019.77 1019.85 1019.92 1020.00 1020.11 1020.26 1020.44 1020.64 1020.85 1021.05 1021.22 1021.35 1021.42 1021.44 1021.43 1021.38 1021.34 1021.29 1021.27 1021.27 1021.27 1021.27 1021.25 1021.17 1021.03 1020.82 1020.52 1020.15 1019.71 1019.24 1018.73 1018.22
1018.55 1018.74 1018.95 1019.15 1019.33 1019.47 1019.59 1019.69 1019.78 1019.88 1020.00 1020.16 1020.35 1020.57 1020.80 1021.01 1021.20 1021.34 1021.43 1021.48 1021.48 1021.46 1021.43 1021.41 1021.41 1021.42 1021.44 1021.45 1021.44 1021.37 1021.23 1021.01 1020.70 1020.32 1019.88 1019.39 1018.88 1018.35
1018.16 1018.39 1018.63 1018.86 1019.08 1019.25 1019.40 1019.53 1019.65 1019.77 1019.92 1020.10 1020.31 1020.54 1020.78 1021.00 1021.20 1021.35 1021.46 1021.52 1021.54 1021.54 1021.54 1021.54 1021.56 1021.59 1021.63 1021.66 1021.65 1021.59 1021.45 1021.22 1020.91 1020.53 1020.08 1019.59 1019.08 1018.55
1017.82 1018.06 1018.32 1018.57 1018.80 1019.00 1019.18 1019.33 1019.48 1019.63 1019.81 1020.02 1020.25 1020.50 1020.75 1020.99 1021.20 1021.37 1021.49 1021.57 1021.61 1021.63 1021.65 1021.68 1021.73 1021.79 1021.85 1021.89 1021.89 1021.83 1021.69 1021.46 1021.15 1020.76 1020.32 1019.83 1019.33 1018.81
1017.50 1017.75 1018.00 1018.25 1018.48 1018.68 1018.86 1019.04 1019.21 1019.40 1019.61 1019.85 1020.12 1020.41 1020.69 1020.95 1021.18 1021.37 1021.51 1021.61 1021.67 1021.73 1021.78 1021.84 1021.92 1022.00 1022.08 1022.14 1022.15 1022.09 1021.95 1021.72 1021.41 1021.02 1020.58 1020.10 1019.60 1019.10
1017.18 1017.40 1017.63 1017.84 1018.05 1018.23 1018.41 1018.59 1018.79 1019.02 1019.27 1019.57 1019.88 1020.21 1020.54 1020.84 1021.11 1021.33 1021.50 1021.63 1021.73 1021.82 1021.91 1022.01 1022.12 1022.23 1022.33 1022.41 1022.42 1022.37 1022.23 1022.00 1021.69 1021.30 1020.86 1020.39 1019.90 1019.40
1016.79 1016.96 1017.13 1017.30 1017.46 1017.61 1017.78 1017.96 1018.19 1018.45 1018.76 1019.12 1019.50 1019.90 1020.29 1020.65 1020.96 1021.23 1021.45 1021.63 1021.77 1021.90 1022.03 1022.17 1022.31 1022.46 1022.59 1022.68 1022.71 1022.67 1022.53 1022.31 1021.99 1021.61 1021.17 1020.69 1020.20 1019.69
1016.25 1016.36 1016.47 1016.57 1016.68 1016.80 1016.95 1017.14 1017.39 1017.71 1018.09 1018.52 1018.98 1019.46 1019.93 1020.36 1020.75 1021.08 1021.36 1021.59 1021.79 1021.97 1022.14 1022.32 1022.50 1022.68 1022.84 1022.95 1023.00 1022.97 1022.84 1022.62 1022.31 1021.93 1021.49 1021.01 1020.50 1019.97
1015.52 1015.57 1015.61 1015.65 1015.71 1015.79 1015.94 1016.15 1016.44 1016.81 1017.27 1017.78 1018.34 1018.92 1019.48 1020.00 1020.47 1020.88 1021.22 1021.52 1021.77 1022.00 1022.23 1022.45 1022.67 1022.88 1023.06 1023.20 1023.27 1023.25 1023.14 1022.93 1022.63 1022.25 1021.81 1021.32 1020.80 1020.24
1014.57 1014.56 1014.55 1014.54 1014.56 1014.64 1014.78 1015.02 1015.36 1015.81 1016.35 1016.96 1017.62 1018.29 1018.95 1019.57 1020.13 1020.62 1021.04 1021.40 1021.72 1022.01 1022.28 1022.55 1022.80 1023.04 1023.25 1023.41 1023.50 1023.50 1023.41 1023.21 1022.92 1022.55 1022.12 1021.62 1021.09 1020.50
1013.41 1013.37 1013.32 1013.29 1013.29 1013.37 1013.54 1013.82 1014.23 1014.75 1015.37 1016.07 1016.83 1017.61 1018.36 1019.08 1019.73 1020.30 1020.80 1021.24 1021.62 1021.97 1022.29 1022.60 1022.89 1023.16 1023.39 1023.57 1023.68 1023.70 1023.63 1023.45 1023.18 1022.83 1022.39 1021.90 1021.35 1020.76
1012.11 1012.05 1011.99 1011.95 1011.96 1012.07 1012.27 1012.61 1013.07 1013.67 1014.37 1015.16 1016.01 1016.88 1017.72 1018.53 1019.26 1019.92 1020.51 1021.02 1021.47 1021.87 1022.25 1022.59 1022.92 1023.21 1023.47 1023.67 1023.80 1023.84 1023.78 1023.63 1023.38 1023.04 1022.63 1022.14 1021.60 1020.99
Thickness
5678 5677 5676 5676 5676 5676 5674 5673 5670 5667 5669 5673 5674 5677 5677 5678 5678 5678 5678 5677 5677 5676 5675 5674 5673 5673 5672 5672 5671 5670 5669 5669 5668 5668 5668 5667 5667 5667
5673 5671 5671 5671 5671 5670 5669 5669 5668 5666 5665 5669 5669 5670 5671 5673 5673 5673 5672 5672 5672 5671 5671 5670 5670 5669 5669 5668 5667 5666 5666 5665 5665 5664 5663 5663 5663 5663
5667 5666 5666 5665 5665 5665 5665 5664 5663 5662 5661 5663 5664 5665 5665 5666 5667 5667 5667 5666 5666 5666 5666 5666 5665 5665 5664 5664 5663 5662 5661 5661 5660 5659 5659 5658 5658 5658
5660 5660 5660 5660 5660 5660 5659 5659 5658 5658 5658 5657 5658 5659 5659 5660 5661 5661 5661 5662 5661 5661 5661 5661 5661 5660 5659 5659 5658 5657 5657 5656 5655 5655 5654 5654 5653 5653
5654 5654 5654 5654 5654 5654 5654 5654 5654 5654 5653 5652 5652 5652 5653 5654 5654 5655 5655 5655 5656 5656 5655 5655 5655 5655 5654 5654 5653 5653 5652 5652 5651 5650 5649 5649 5649 5648
5648 5648 5648 5648 5649 5649 5649 5649 5649 5648 5647 5646 5646 5646 5646 5647 5647 5648 5648 5649 5649 5650 5650 5650 5650 5650 5649 5649 5649 5648 5648 5647 5647 5646 5645 5644 5644 5644
5642 5642 5642 5642 5643 5643 5644 5644 5644 5643 5641 5641 5641 5641 5641 5640 5641 5642 5642 5642 5642 5643 5644 5644 5644 5644 5643 5643 5643 5643 5643 5643 5642 5642 5641 5640 5639 5639
5635 5635 5635 5636 5637 5637 5638 5639 5639 5638 5637 5636 5636 5636 5637 5637 5637 5637 5636 5636 5636 5637 5637 5638 5638 5638 5638 5638 5639 5639 5639 5638 5638 5637 5636 5635 5634 5634
5628 5628 5629 5631 5631 5631 5632 5633 5633 5634 5634 5634 5632 5633 5633 5634 5632 5631 5631 5631 5631 5632 5631 5631 5632 5632 5633 5633 5633 5634 5633 5633 5633 5632 5631 5630 5630 5629
5621 5622 5622 5624 5625 5625 5625 5626 5627 5628 5629 5629 5629 5630 5630 5630 5629 5628 5627 5625 5625 5625 5625 5626 5626 5626 5627 5627 5628 5629 5628 5628 5627 5627 5626 5625 5625 5624
5615 5615 5616 5617 5618 5618 5619 5620 5621 5622 5624 5624 5625 5625 5625 5625 5624 5622 5620 5620 5620 5620 5619 5620 5621 5621 5621 5621 5622 5623 5623 5622 5622 5621 5621 5620 5619 5618
5609 5610 5610 5611 5612 5612 5613 5614 5614 5616 5616 5618 5618 5619 5620 5620 5619 5618 5618 5617 5616 5615 5615 5614 5615 5614 5615 5615 5615 5616 5616 5616 5615 5614 5614 5613 5612 5611
5602 5603 5604 5605 5605 5606 5606 5608 5608 5609 5610 5611 5612 5613 5614 5614 5614 5613 5613 5613 5613 5612 5612 5610 5609 5608 5609 5609 5609 5609 5609 5609 5608 5608 5607 5607 5606 5605
5595 5596 5597 5598 5599 5599 5600 5602 5602 5602 5603 5605 5606 5607 5608 5609 5609 5609 5608 5608 5609 5609 5608 5606 5605 5605 5604 5604 5604 5603 5603 5602 5602 5601 5600 5600 5599 5598
5588 5589 5590 5591 5592 5593 5594 5595 5596 5597 5597 5599 5600 5602 5603 5604 5603 5603 5603 5603 5603 5603 5603 5602 5601 5600 5600 5599 5598 5597 5597 5596 5595 5594 5594 5593 5593 5592
5582 5582 5583 5584 5585 5586 5587 5588 5590 5590 5592 5593 5595 5596 5597 5597 5597 5598 5598 5597 5597 5597 5596 5596 5596 5595 5594 5593 5593 5592 5591 5590 5589 5588 5587 5587 5586 5586
5575 5575 5576 5577 5578 5579 5581 5582 5583 5584 5586 5587 5588 5589 5591 5592 5592 5592 5591 5591 5591 5592 5591 5590 5588 5588 5588 5587 5586 5586 5585 5584 5583 5582 5580 5581 5581 5580
5568 5570 5570 5571 5572 5573 5575 5576 5577 5578 5580 5581 5582 5583 5584 5585 5586 5585 5585 5585 5585 5586 5585 5584 5582 5581 5580 5579 5579 5579 5579 5578 5576 5575 5574 5574 5575 5575
5562 5564 5565 5566 5566 5567 5568 5570 5572 5573 5574 5575 5576 5577 5578 5579 5580 5580 5580 5580 5580 5580 5579 5578 5576 5576 5576 5576 5575 5572 5572 5571 5569 5568 5568 5568 5569 5569
5557 5559 5560 5561 5561 5562 5563 5565 5566 5567 5568 5569 5570 5571 5572 5573 5574 5574 5574 5574 5574 5574 5573 5572 5571 5571 5571 5571 5570 5567 5565 5565 5564 5563 5562 5561 5561 5560
5554 5554 5555 5556 5557 5558 5559 5559 5560 5562 5563 5564 5565 5566 5567 5568 5569 5570 5570 5568 5568 5568 5568 5567 5566 5565 5564 5563 5562 5561 5559 5557 5557 5557 5556 5556 5556 5555
5549 5549 5551 5551 5552 5553 5553 5554 5555 5557 5558 5559 5560 5561 5562 5563 5564 5564 5564 5564 5563 5563 5562 5561 5559 5558 5558 5557 5557 5555 5553 5551 5550 5549 5549 5550 5550 5550
5543 5544 5545 5546 5547 5547 5549 5550 5551 5553 5554 5555 5556 5557 5558 5558 5558 5558 5558 5558 5557 5556 5555 5554 5553 5552 5551 5551 5549 5548 5546 5545 5544 5543 5542 5542 5542 5542